User: anonymous
Location: Unspecified
(0.0000°N, 0.0000°E)
Time: 09:49:50
(UTC+00:00)
Language:

UHF F/O F4 - Orbit

View from above orbital plane
View from above orbital plane
View from above satellite
View from above satellite

Ground track
Ground track

The orbit data is extracted from the following two-line orbital elements,

1 23467U 95003A   14207.53117631 0.00000000  00000-0  00000-0 0    03
2 23467   8.4640  35.6869 0008110 271.8222  88.0912  1.00270000    05
Epoch (UTC): 26 July 2014 12:44:53
Eccentricity: 0.0008110
inclination: 8.4640°
perigee height: 35752 km
apogee height: 35821 km
right ascension of ascending node: 35.6869°
argument of perigee: 271.8222°
revolutions per day: 1.00270000
mean anomaly at epoch: 88.0912°
orbit number at epoch: 0

The dashed part of the orbit path shows where the satellite is in the earth's shadow,  

DLR